Content
SEND FEEDBACK

Daily
Averages
Monthly
Summary
Austria

INNSBRUCK, AUSTRIA


Home > Europe > Austria
Elevation: 1994 feet     Latitude: 47 15N     Longitude: 011 20E

WEATHER
 
SELECT A DAY
Number of Records: 310,937;   Date Range: 7/1/96 - 7/20/14
 
SHARE

PRINT THIS DATA

[ ← Previous Day ]
WEATHER ALMANAC - MAY 17, 2013
[ Next Day → ]
[ °C ]   °F
Weather ElementAverageHighLow
Temperature59.4 °F64.4 °F (10:50 am)51.8 °F (7:20 am)
Dewpoint45.1 °F51 °F (2:00 pm)40 °F (11:00 pm)
Humidity58.5 %82 % (7:20 am)37 % (8:00 pm)
Barometer29.52 in29.68 in (11:50 pm)29.40 in (11:00 am)
Wind Speed9.5 mph18.4 mph (11:50 am)
Wind Gust29.9 mph (11:50 am)
Weather ElementAverage
Visibility9.2 mi
Wind DirectionSE (131.5 °)

Weather ElementTotal
Precipitation---
Heating Degree Days6.9 (Base 65)
Growing Degree Days8.1 (Base 50)
Averaged from 55 records on May 17, 2013
WEATHER CONDITIONS BREAKOUT
WIND DIRECTION BREAKOUT
WEATHER BY HOUR - MAY 17, 2013
[ °C ]   °F
Local TimeTemperatureDewpointHumidityBarometerVisibilityWind DirectionWind SpeedGust SpeedPrecipitationEventsConditions
12:50 AM57.2 °F42.8 °F59 %29.50 in6.2 miVariable8.1 mphMostly Cloudy
1:20 AM57.2 °F42.8 °F59 %29.50 in6.2 miEast (100°)13.8 mph28.8 mphMostly Cloudy
1:50 AM59.0 °F42.8 °F55 %29.47 in6.2 miNNE (30°)12.7 mph24.2 mphMostly Cloudy
2:00 AM58.0 °F43.0 °F47 %29.46 in31.0 miNNE (30°)13.4 mph
2:20 AM59.0 °F42.8 °F55 %29.47 in6.2 miVariable6.9 mph18.4 mphOvercast
2:50 AM59.0 °F44.6 °F59 %29.47 in6.2 miVariable5.8 mphOvercast
3:20 AM59.0 °F44.6 °F59 %29.50 in6.2 miVariable10.4 mphOvercast
3:50 AM59.0 °F44.6 °F59 %29.47 in6.2 miNNE (20°)9.2 mphMostly Cloudy
4:20 AM59.0 °F44.6 °F59 %29.47 in6.2 miVariable5.8 mphMostly Cloudy
4:50 AM59.0 °F44.6 °F59 %29.47 in6.2 miVariable11.5 mph24.2 mphMostly Cloudy
5:00 AM60.0 °F44.0 °F44 %29.45 in9.0 miENE (70°)11.2 mphRainLight Rain Showers
5:20 AM59.0 °F44.6 °F59 %29.47 in6.2 miEast (90°)9.2 mphMostly Cloudy
5:50 AM57.2 °F44.6 °F63 %29.47 in6.2 miEast (80°)3.5 mphMostly Cloudy
6:20 AM59.0 °F44.6 °F59 %29.44 in6.2 miSE (130°)3.5 mphMostly Cloudy
6:50 AM53.6 °F46.4 °F77 %29.44 in6.2 miWest (280°)11.5 mphMostly Cloudy
7:20 AM51.8 °F46.4 °F82 %29.44 in6.2 miWest (270°)6.9 mphMostly Cloudy
7:50 AM53.6 °F46.4 °F77 %29.44 in6.2 miWest (270°)5.8 mphMostly Cloudy
8:00 AM53.0 °F46.0 °F71 %29.46 in37.0 miWest (270°)6.7 mphScattered Clouds
8:20 AM55.4 °F46.4 °F72 %29.44 in6.2 miWest (270°)11.5 mphMostly Cloudy
8:50 AM59.0 °F48.2 °F67 %29.44 in6.2 miWest (260°)8.1 mphMostly Cloudy
9:20 AM59.0 °F48.2 °F67 %29.44 in6.2 miWest (260°)11.5 mphMostly Cloudy
9:50 AM60.8 °F48.2 °F63 %29.44 in6.2 miWest (270°)9.2 mphMostly Cloudy
10:20 AM62.6 °F50.0 °F63 %29.44 in6.2 miWest (270°)10.4 mphMostly Cloudy
10:50 AM64.4 °F48.2 °F56 %29.44 in6.2 miWest (260°)16.1 mphMostly Cloudy
11:00 AM64.0 °F48.0 °F46 %29.40 in31.0 miWest (260°)15.7 mphPartly Cloudy
11:20 AM62.6 °F46.4 °F55 %29.47 in6.2 miWSW (250°)16.1 mphMostly Cloudy
11:50 AM60.8 °F48.2 °F63 %29.47 in6.2 miWSW (240°)18.4 mph29.9 mphRainLight Rain Showers
12:20 PM59.0 °F48.2 °F67 %29.53 in6.2 miWSW (240°)16.1 mph27.6 mphRainLight Rain Showers
12:50 PM59.0 °F48.2 °F67 %29.53 in6.2 miSW (230°)12.7 mphRainLight Rain Showers
1:20 PM57.2 °F50.0 °F77 %29.56 in6.2 miSW (230°)9.2 mphRainLight Rain Showers
1:50 PM57.2 °F50.0 °F77 %29.59 in6.2 miSE (140°)3.5 mphRainRain Showers
2:00 PM56.0 °F51.0 °F77 %29.57 in12.0 miSE (140°)4.5 mphRainHeavy Rain Showers
2:20 PM57.2 °F50.0 °F77 %29.59 in6.2 miEast (90°)5.8 mphRainLight Rain Showers
2:50 PM57.2 °F46.4 °F67 %29.56 in6.2 miVariable4.6 mphMostly Cloudy
3:20 PM59.0 °F44.6 °F59 %29.56 in6.2 miVariable6.9 mphMostly Cloudy
3:50 PM60.8 °F46.4 °F59 %29.56 in6.2 miVariable6.9 mphMostly Cloudy
4:20 PM62.6 °F48.2 °F59 %29.53 in6.2 miSouth (170°)8.1 mph20.7 mphMostly Cloudy
4:50 PM64.4 °F44.6 °F49 %29.53 in6.2 miNNE (20°)8.1 mphMostly Cloudy
5:00 PM64.0 °F45.0 °F39 %29.51 in31.0 miNNE (20°)8.9 mphPartly Cloudy
5:20 PM64.4 °F48.2 °F56 %29.53 in6.2 miNNW (340°)4.6 mphMostly Cloudy
5:50 PM62.6 °F44.6 °F52 %29.56 in6.2 miSSE (160°)10.4 mphMostly Cloudy
6:20 PM62.6 °F44.6 °F52 %29.56 in6.2 miSouth (170°)6.9 mphMostly Cloudy
6:50 PM62.6 °F42.8 °F48 %29.56 in6.2 miSSE (160°)11.5 mphMostly Cloudy
7:20 PM62.6 °F42.8 °F48 %29.56 in6.2 miSSE (150°)12.7 mph24.2 mphMostly Cloudy
7:50 PM62.6 °F42.8 °F48 %29.56 in6.2 miSSE (160°)10.4 mph21.9 mphMostly Cloudy
8:00 PM62.0 °F42.0 °F37 %29.54 in31.0 miSSE (160°)11.2 mphPartly Cloudy
8:20 PM60.8 °F42.8 °F52 %29.56 in6.2 miSSE (150°)15.0 mphMostly Cloudy
8:50 PM59.0 °F41.0 °F51 %29.59 in6.2 miSSE (150°)15.0 mphScattered Clouds
9:20 PM59.0 °F41.0 °F51 %29.59 in6.2 miSSE (150°)12.7 mph25.3 mphScattered Clouds
9:50 PM59.0 °F41.0 °F51 %29.62 in6.2 miVariable5.8 mphScattered Clouds
10:20 PM59.0 °F41.0 °F51 %29.65 in6.2 miVariable6.9 mphScattered Clouds
10:50 PM59.0 °F41.0 °F51 %29.65 in6.2 miVariable6.9 mphScattered Clouds
11:00 PM59.0 °F40.0 °F38 %29.64 in31.0 mi°6.7 mphScattered Clouds
11:20 PM59.0 °F41.0 °F51 %29.65 in6.2 miVariable6.9 mph20.7 mphOvercast
11:50 PM57.2 °F41.0 °F55 %29.68 in6.2 miEast (90°)10.4 mphMostly Cloudy
Hourly data recorded from LOWI, located miles away from Innsbruck, Austria







STORIES FROM OUR PARTNERS